AAL433 KATL-KFLL

Flight info

Callsign AAL433
Flight time N/A
Altitude 31000
Route SMLTZ3 WALET ZPLEN TEEKY4
Aircraft B738/M-VGDW/C

Departure

Time 2026-05-03 22:43
Airport Hartsfield Jackson Atlanta International Airport (KATL)

Arrival

Time N/A
Airport Fort Lauderdale Hollywood International Airport (KFLL)
Time Latitude Longitude Altitude Speed Heading
2026-05-03 22:27 33.63828 -84.43317 1010 ft 0 kts 89°
2026-05-03 22:35 33.63828 -84.43332 1010 ft 2 kts 89°
2026-05-03 22:35 33.63828 -84.43350 1010 ft 2 kts 90°
2026-05-03 22:35 33.63827 -84.43368 1010 ft 2 kts 90°
2026-05-03 22:35 33.63833 -84.43385 1010 ft 2 kts 138°
2026-05-03 22:36 33.63845 -84.43392 1010 ft 1 kts 174°
2026-05-03 22:36 33.63851 -84.43392 1010 ft 1 kts 182°
2026-05-03 22:36 33.63854 -84.43392 1010 ft 0 kts 180°
2026-05-03 22:38 33.63800 -84.43392 1010 ft 23 kts 180°
2026-05-03 22:38 33.63663 -84.43288 1009 ft 30 kts 90°
2026-05-03 22:38 33.63663 -84.43052 1007 ft 26 kts 90°
2026-05-03 22:39 33.63663 -84.42841 1004 ft 24 kts 91°
2026-05-03 22:39 33.63655 -84.42664 1001 ft 19 kts 90°
2026-05-03 22:39 33.63656 -84.42496 997 ft 20 kts 89°
2026-05-03 22:39 33.63653 -84.42329 991 ft 19 kts 90°
2026-05-03 22:40 33.63656 -84.42162 985 ft 20 kts 89°
2026-05-03 22:40 33.63655 -84.41983 978 ft 23 kts 90°
2026-05-03 22:40 33.63655 -84.41757 967 ft 30 kts 90°
2026-05-03 22:40 33.63654 -84.41495 963 ft 33 kts 90°
2026-05-03 22:41 33.63654 -84.41219 962 ft 31 kts 91°
2026-05-03 22:41 33.63654 -84.40989 959 ft 22 kts 89°
2026-05-03 22:41 33.63631 -84.40862 954 ft 14 kts 135°
2026-05-03 22:41 33.63565 -84.40885 955 ft 8 kts 218°
2026-05-03 22:42 33.63518 -84.40907 956 ft 8 kts 190°
2026-05-03 22:42 33.63478 -84.40962 958 ft 12 kts 256°
2026-05-03 22:42 33.63473 -84.41209 963 ft 62 kts 270°
2026-05-03 22:42 33.63472 -84.42020 982 ft 127 kts 271°
2026-05-03 22:43 33.63479 -84.43278 1074 ft 170 kts 270°
2026-05-03 22:43 33.63468 -84.44785 1434 ft 196 kts 271°
2026-05-03 22:43 33.63464 -84.46505 1949 ft 218 kts 271°
2026-05-03 22:43 33.63455 -84.48387 2552 ft 236 kts 271°
2026-05-03 22:44 33.63456 -84.50407 3077 ft 253 kts 272°
2026-05-03 22:44 33.63465 -84.52554 3753 ft 261 kts 272°
2026-05-03 22:44 33.63469 -84.54730 4529 ft 264 kts 271°
2026-05-03 22:44 33.63466 -84.56947 5293 ft 268 kts 271°
2026-05-03 22:45 33.63463 -84.59178 6027 ft 272 kts 271°
2026-05-03 22:45 33.63461 -84.61409 6792 ft 274 kts 271°
2026-05-03 22:45 33.63304 -84.63686 7508 ft 279 kts 259°
2026-05-03 22:45 33.62529 -84.65850 8250 ft 286 kts 236°
2026-05-03 22:46 33.61101 -84.67497 8997 ft 291 kts 215°
2026-05-03 22:46 33.59318 -84.68660 9727 ft 294 kts 207°
2026-05-03 22:46 33.57367 -84.69463 10384 ft 302 kts 192°
2026-05-03 22:46 33.55260 -84.69504 11013 ft 309 kts 174°
2026-05-03 22:47 33.53135 -84.69032 11719 ft 309 kts 169°
2026-05-03 22:47 33.51038 -84.68509 12325 ft 313 kts 171°
2026-05-03 22:47 33.48862 -84.68047 12945 ft 315 kts 173°
2026-05-03 22:47 33.46697 -84.67655 13564 ft 318 kts 174°
2026-05-03 22:48 33.44511 -84.67270 13963 ft 325 kts 173°
2026-05-03 22:48 33.42297 -84.66635 13990 ft 330 kts 160°
2026-05-03 22:48 33.40307 -84.65183 14346 ft 343 kts 140°
2026-05-03 22:48 33.38564 -84.63130 14510 ft 361 kts 133°
2026-05-03 22:49 33.36833 -84.60850 14637 ft 378 kts 133°
2026-05-03 22:49 33.34987 -84.58501 14953 ft 388 kts 135°
2026-05-03 22:49 33.33087 -84.56215 15393 ft 393 kts 136°
2026-05-03 22:49 33.31097 -84.53891 15910 ft 397 kts 137°
2026-05-03 22:50 33.29129 -84.51614 16483 ft 398 kts 137°
2026-05-03 22:50 33.27148 -84.49317 16993 ft 401 kts 137°
2026-05-03 22:50 33.25149 -84.46983 17487 ft 405 kts 137°
2026-05-03 22:50 33.23123 -84.44610 17944 ft 409 kts 137°
2026-05-03 22:51 33.21097 -84.42233 18437 ft 412 kts 137°
2026-05-03 22:51 33.19030 -84.39809 18955 ft 414 kts 137°
2026-05-03 22:51 33.16978 -84.37399 19479 ft 415 kts 137°
2026-05-03 22:51 33.14939 -84.35008 19949 ft 417 kts 137°
2026-05-03 22:52 33.12847 -84.32558 20362 ft 420 kts 138°
2026-05-03 22:52 33.10764 -84.30117 20820 ft 422 kts 138°
2026-05-03 22:52 33.08658 -84.27657 21256 ft 424 kts 138°
2026-05-03 22:52 33.06543 -84.25188 21618 ft 427 kts 138°
2026-05-03 22:53 33.04407 -84.22700 22003 ft 430 kts 138°
2026-05-03 22:53 33.02251 -84.20223 22411 ft 432 kts 139°
2026-05-03 22:53 32.99957 -84.17921 22710 ft 434 kts 147°
2026-05-03 22:53 32.97342 -84.16132 23070 ft 432 kts 159°
2026-05-03 22:54 32.94537 -84.14824 23539 ft 430 kts 165°
2026-05-03 22:54 32.91688 -84.13718 23988 ft 429 kts 166°
2026-05-03 22:54 32.88847 -84.12647 24313 ft 432 kts 166°
2026-05-03 22:54 32.85986 -84.11543 24674 ft 434 kts 166°
2026-05-03 22:55 32.83100 -84.10395 24981 ft 437 kts 165°
2026-05-03 22:55 32.80227 -84.09214 25328 ft 438 kts 165°
2026-05-03 22:55 32.77356 -84.08014 25664 ft 440 kts 165°
2026-05-03 22:55 32.74471 -84.06812 25905 ft 443 kts 165°
2026-05-03 22:56 32.71522 -84.05585 26265 ft 443 kts 165°
2026-05-03 22:56 32.68642 -84.04377 26567 ft 445 kts 165°
2026-05-03 22:56 32.65714 -84.03161 26879 ft 446 kts 166°
2026-05-03 22:56 32.62754 -84.01955 27183 ft 447 kts 166°
2026-05-03 22:57 32.59820 -84.00777 27544 ft 446 kts 167°
2026-05-03 22:57 32.56869 -83.99596 27877 ft 446 kts 167°
2026-05-03 22:57 32.53927 -83.98416 28067 ft 450 kts 167°
2026-05-03 22:57 32.50940 -83.97215 28363 ft 451 kts 167°
2026-05-03 22:58 32.47969 -83.96015 28608 ft 453 kts 167°
2026-05-03 22:58 32.44994 -83.94817 28909 ft 453 kts 167°
2026-05-03 22:58 32.41998 -83.93607 29411 ft 448 kts 168°
2026-05-03 22:58 32.39052 -83.92414 29933 ft 442 kts 168°
2026-05-03 22:59 32.36131 -83.91240 30205 ft 442 kts 168°
2026-05-03 22:59 32.33189 -83.90100 30507 ft 441 kts 169°
2026-05-03 22:59 32.30270 -83.89018 30857 ft 438 kts 170°
2026-05-03 22:59 32.27360 -83.87982 31073 ft 436 kts 171°
2026-05-03 23:00 32.24415 -83.86956 31095 ft 438 kts 171°
2026-05-03 23:00 32.18561 -83.84920 31092 ft 442 kts 171°
2026-05-03 23:01 32.12624 -83.82819 31097 ft 447 kts 171°
2026-05-03 23:01 32.06657 -83.80635 31091 ft 450 kts 171°
2026-05-03 23:02 32.00647 -83.78427 31092 ft 453 kts 171°
2026-05-03 23:02 31.94593 -83.76237 31097 ft 456 kts 171°
2026-05-03 23:03 31.88516 -83.74069 31098 ft 459 kts 171°
2026-05-03 23:03 31.82370 -83.71914 31096 ft 461 kts 172°
2026-05-03 23:04 31.76190 -83.69782 31094 ft 462 kts 172°
2026-05-03 23:04 31.70035 -83.67630 31097 ft 464 kts 171°
2026-05-03 23:05 31.63856 -83.65359 31098 ft 464 kts 170°
2026-05-03 23:05 31.57702 -83.62964 31096 ft 467 kts 169°
2026-05-03 23:06 31.51531 -83.60506 31102 ft 468 kts 169°
2026-05-03 23:06 31.45353 -83.58089 31105 ft 465 kts 169°